This demonstration page uses our WeatherBlox Daily Observations layout. Learn more.

Left ArrowRight Arrow

40.92945, -100.16068

Hourly Observations for November 3, 2021

Temp ( °F °C ) Dew Point ( °F °C ) Humidity (%) Winds ( mph kmh ) Pressure ( in mb ) Visibility ( mi km ) Precip ( " mm )
12:15 am 00:15 Cloudy 38 3.5 36 2 90 90 SSW 9 15 30.39 1029 10 16 0.00 0.00
12:35 am 00:35 Cloudy 38 3.5 36 2 90 90 SSW 9 15 30.39 1029 10 16 0.00 0.00
12:55 am 00:55 Cloudy 38 3.3 36 2 91 91 SW 8 13 30.40 1029 10 16 0.00 0.00
1:15 am 01:15 Cloudy 38 3.3 36 2 91 91 SW 7 11 30.40 1029 10 16 0.00 0.00
1:35 am 01:35 Cloudy 38 3.3 35 1.8 90 90 SW 7 11 30.40 1029 10 16 0.00 0.00
1:55 am 01:55 Cloudy 38 3.3 36 2 91 91 SW 3 6 30.40 1029 10 16 0.00 0.00
2:15 am 02:15 Cloudy 38 3.3 36 2 91 91 SW 8 13 30.41 1030 10 16 0.00 0.00
2:35 am 02:35 Cloudy 38 3.3 35 1.9 91 91 SW 6 9 30.41 1030 10 16 0.00 0.00
2:55 am 02:55 Cloudy 38 3.3 35 1.8 90 90 SW 6 9 30.40 1029 10 16 0.00 0.00
3:15 am 03:15 Cloudy 38 3.2 35 1.8 91 91 SW 6 9 30.40 1029 10 16 0.00 0.00
3:35 am 03:35 Cloudy 38 3.3 35 1.9 91 91 SW 5 7 30.40 1029 10 16 0.00 0.00
3:55 am 03:55 Cloudy 38 3.3 35 1.9 91 91 SSW 5 7 30.39 1029 10 16 0.00 0.00
4:15 am 04:15 Cloudy 38 3.3 36 2 91 91 SSW 7 11 30.38 1029 10 16 0.00 0.00
4:35 am 04:35 Cloudy 38 3.3 35 1.9 91 91 SSW 8 13 30.37 1028 10 16 0.00 0.00
4:55 am 04:55 Cloudy 38 3.3 36 2 91 91 SSW 6 9 30.38 1029 10 16 0.00 0.00
5:15 am 05:15 Cloudy 38 3.3 35 1.8 90 90 SSW 8 13 30.37 1028 10 16 0.00 0.00
5:35 am 05:35 Cloudy 38 3.3 36 2 91 91 SSW 7 11 30.36 1028 10 16 0.00 0.00
5:55 am 05:55 Cloudy 38 3.3 36 2 91 91 SSW 8 13 30.37 1028 10 16 0.00 0.00
6:15 am 06:15 Cloudy 38 3.3 36 2 91 91 SW 8 13 30.38 1029 10 16 0.00 0.00
6:35 am 06:35 Cloudy 38 3.3 36 2 91 91 SW 9 15 30.38 1029 10 16 0.00 0.00
6:55 am 06:55 Cloudy 38 3.3 36 2 91 91 SW 7 11 30.37 1028 10 16 0.00 0.00
7:15 am 07:15 Cloudy 38 3.3 36 2 91 91 SW 8 13 30.36 1028 10 16 0.00 0.00
7:35 am 07:35 Cloudy 38 3.3 36 2.1 92 92 SW 10 17 30.36 1028 10 16 0.00 0.00
7:55 am 07:55 Cloudy 38 3.3 36 2 91 91 SW 10 17 30.36 1028 10 16 0.00 0.00
8:15 am 08:15 Cloudy 38 3.2 36 2 92 92 SW 10 17 30.36 1028 10 16 0.00 0.00
8:35 am 08:35 Cloudy 38 3.1 36 2 93 93 WSW 10 17 30.36 1028 10 16 0.00 0.00
8:55 am 08:55 Cloudy 37 3 36 2 93 93 WSW 10 17 30.36 1028 10 16 0.00 0.00
9:15 am 09:15 Cloudy 37 3 36 2 93 93 WSW 10 17 30.37 1028 10 16 0.00 0.00
9:35 am 09:35 Cloudy 38 3.3 36 2.1 92 92 WSW 10 17 30.38 1029 10 16 0.00 0.00
9:55 am 09:55 Cloudy 38 3.5 36 2.3 92 92 WSW 10 17 30.37 1029 10 16 0.00 0.00
10:15 am 10:15 Cloudy 38 3.5 36 2.2 91 91 SW 12 19 30.37 1029 10 16 0.00 0.00
10:35 am 10:35 Cloudy 38 3.3 36 2.1 92 92 SW 10 17 30.38 1029 10 16 0.00 0.00
10:55 am 10:55 Cloudy 38 3.4 36 2.3 93 93 W 12 19 30.37 1029 10 16 0.00 0.00
11:15 am 11:15 Cloudy 38 3.5 36 2.3 92 92 W 10 17 30.37 1029 10 16 0.00 0.00
11:35 am 11:35 Cloudy 38 3.5 36 2.3 92 92 WSW 8 13 30.37 1029 10 16 0.00 0.00
11:55 am 11:55 Cloudy 39 3.7 36 2.3 91 91 WSW 6 9 30.37 1028 10 16 0.00 0.00
12:15 pm 12:15 Cloudy 40 4.3 37 2.7 89 89 WSW 7 11 30.36 1028 10 16 0.00 0.00
12:35 pm 12:35 Cloudy 40 4.7 37 2.9 88 88 WSW 7 11 30.34 1027 10 16 0.00 0.00
12:55 pm 12:55 Cloudy 41 5 37 2.9 86 86 WSW 7 11 30.33 1027 10 16 0.00 0.00
1:15 pm 13:15 Cloudy 42 5.5 37 3 84 84 SW 8 13 30.31 1027 10 16 0.00 0.00
1:35 pm 13:35 Cloudy 43 5.9 38 3.3 84 84 W 10 17 30.30 1026 10 16 0.00 0.00
1:55 pm 13:55 Cloudy 43 6.1 38 3.1 81 81 WSW 8 13 30.29 1026 10 16 0.00 0.00
2:15 pm 14:15 Cloudy 44 6.6 38 3.3 80 80 WSW 8 13 30.27 1025 10 16 0.00 0.00
2:35 pm 14:35 Cloudy 45 7.2 38 3.5 78 78 WSW 8 13 30.26 1025 10 16 0.00 0.00
2:55 pm 14:55 Cloudy 46 7.8 39 3.8 76 76 SW 8 13 30.24 1024 10 16 0.00 0.00
3:15 pm 15:15 Cloudy 47 8.5 39 3.9 73 73 WSW 7 11 30.23 1024 10 16 0.00 0.00
3:35 pm 15:35 Cloudy 49 9.3 40 4.3 71 71 SW 8 13 30.21 1023 10 16 0.00 0.00
3:55 pm 15:55 Mostly Cloudy 50 10 40 4.2 68 68 SW 5 7 30.20 1023 10 16 0.00 0.00
4:15 pm 16:15 Mostly Cloudy 51 10.8 40 4.6 66 66 WSW 5 7 30.19 1022 10 16 0.00 0.00
4:35 pm 16:35 Partly Cloudy 50 9.8 40 4.6 70 70 NNW 5 7 30.20 1023 10 16 0.00 0.00
4:55 pm 16:55 Sunny 49 9.6 40 4.6 71 71 N 5 7 30.19 1023 10 16 0.00 0.00
5:15 pm 17:15 Sunny 49 9.5 40 4.6 72 72 Calm 30.20 1023 10 16 0.00 0.00
5:35 pm 17:35 Sunny 49 9.5 40 4.6 72 72 NNW 3 6 30.21 1023 10 16 0.00 0.00
5:55 pm 17:55 Sunny 49 9.2 40 4.7 74 74 Calm 30.20 1023 10 16 0.00 0.00
6:15 pm 18:15 Sunny 48 8.7 40 4.5 75 75 Calm 30.21 1023 10 16 0.00 0.00
6:35 pm 18:35 Clear 45 7.2 40 4.2 81 81 SSE 5 7 30.23 1024 10 16 0.00 0.00
6:55 pm 18:55 Clear 42 5.5 38 3.4 87 87 S 8 13 30.23 1024 10 16 0.00 0.00
7:15 pm 19:15 Clear 41 4.8 37 3 88 88 S 8 13 30.25 1024 10 16 0.00 0.00
7:35 pm 19:35 Clear 39 4 37 2.6 91 91 SSE 7 11 30.26 1025 10 16 0.00 0.00
7:55 pm 19:55 Clear 39 3.7 37 2.5 92 92 S 8 13 30.27 1025 10 16 0.00 0.00
8:15 pm 20:15 Clear 38 3.5 36 2.2 91 91 SSE 7 11 30.26 1025 10 16 0.00 0.00
8:35 pm 20:35 Clear 37 3 36 2 93 93 S 7 11 30.27 1025 10 16 0.00 0.00
8:55 pm 20:55 Clear 38 3.4 37 2.5 94 94 SSE 7 11 30.27 1025 10 16 0.00 0.00
9:15 pm 21:15 Clear 37 2.9 36 2 94 94 S 8 13 30.27 1025 10 16 0.00 0.00
9:35 pm 21:35 Clear 37 2.7 35 1.8 94 94 S 7 11 30.27 1025 7 11 0.00 0.00
9:55 pm 21:55 Clear 37 3 36 2.3 95 95 S 8 13 30.27 1025 7 11 0.00 0.00
10:15 pm 22:15 Clear 37 3 36 2.2 95 95 S 7 11 30.27 1025 7 11 0.00 0.00
10:35 pm 22:35 Clear 37 2.6 35 1.9 95 95 S 7 11 30.28 1025 7 11 0.00 0.00
10:55 pm 22:55 Clear 36 2.2 35 1.6 96 96 S 7 11 30.29 1026 7 11 0.00 0.00
11:15 pm 23:15 Clear 35 1.8 34 1.2 96 96 S 5 7 30.29 1026 7 11 0.00 0.00
11:35 pm 23:35 Clear with Mist and Fog 35 1.7 34 1.2 97 97 S 6 9 30.29 1026 5 8 0.00 0.00
11:55 pm 23:55 Clear with Mist and Fog 36 2 35 1.5 97 97 S 3 6 30.29 1026 5 8 0.00 0.00

Powered by AerisWeather